Regional Weather Roundup
Issued by NWS

Home | Current Version | Previous Version | Graphics & Text | Print | Product List | Glossary On
Versions: 1 2 3 4 5 6 7 8 9 10 11 12 13 14 15 16 17 18 19 20 21 22 23 24 25 26 27 28 29 30 31 32 33 34 35 36 37 38 39 40 41 42 43 44 45 46 47 48 49 50
000
ASUS43 KFSD 240902
RWRSD

WEATHER ROUNDUP FOR SOUTH DAKOTA
NATIONAL WEATHER SERVICE SIOUX FALLS SD
400 AM CDT SAT SEP 24 2016

NOTE: "FAIR" INDICATES FEW OR NO CLOUDS BELOW 12,000 FEET WITH NO
SIGNIFICANT WEATHER AND/OR OBSTRUCTIONS TO VISIBILITY.


SDZ001>005-009-010-012>017-241000-
NORTHWEST AND NORTH CENTRAL SOUTH DAKOTA

CITY           SKY/WX    TMP DP  RH WIND       PRES   REMARKS
BUFFALO          N/A     57  56  96 N18       29.70F
FAITH            N/A     60  60 100 N7        29.73S
MOBRIDGE       CLEAR     68  59  73 SE15      29.71S
$$

SDZ012>016-024>037-041>051-057-063-072>074-241000-
SOUTHWEST AND SOUTH CENTRAL SOUTH DAKOTA

CITY           SKY/WX    TMP DP  RH WIND       PRES   REMARKS
RAPID CTY ARPT CLOUDY    58  54  86 N16       29.76F
PIERRE         CLEAR     68  60  75 SE15      29.74R
CUSTER         LGT RAIN  47  44  90 VRB5      29.83F
ELLSWORTH AFB  CLOUDY    58  57  97 N16       29.75
PHILIP         LGT RAIN  61  58  90 W12       29.72F
PINE RIDGE     MOCLDY    50  48  93 SW12      29.81F
WINNER         FAIR      72  62  71 S12       29.79R
$$

SDZ004>011-016>023-039-040-241000-
NORTHEAST SOUTH DAKOTA

CITY           SKY/WX    TMP DP  RH WIND       PRES   REMARKS
ABERDEEN       PTCLDY    71  63  75 SE20      29.81S
WATERTOWN      PTCLDY    69  65  86 SE15G28   29.91F
SISSETON         N/A     68  66  93 S14G23    29.91S
$$

SDZ017-020-022-023-036>040-048>070-241000-
SOUTHEAST SOUTH DAKOTA

CITY           SKY/WX    TMP DP  RH WIND       PRES   REMARKS
SIOUX FALLS    PTCLDY    70  64  81 SE14      29.93F
HURON          PTCLDY    71  62  73 SE12      29.83S
CHAMBERLAIN    CLEAR     71  64  80 SE15      29.79S
MITCHELL       MOCLDY    72  63  73 SE13      29.86S
YANKTON        MOCLDY    72  63  73 SE16      29.87S
$$

ABBREVIATIONS USED IN REMARKS
   TC - TEMPERATURE IN CELSIUS
  WCI - WIND CHILL INDEX
   HX - HEAT INDEX
  VSB - VISIBILITY





USA.gov is the U.S. government's official web portal to all federal, state and local government web resources and services.